Location: Unspecified
(0.0000°N, 0.0000°E)
Time: 21:32:46
(UTC+00:00)

ATLAS 5 CENTAUR DEB - Visible Passes

Search period start: 12 January 2025 00:00
Search period end: 22 January 2025 00:00
Orbit: 8560 x 36451 km, 19.6° (Epoch: 12 January)

Date Brightness Start Highest point End Pass type
(mag) Time Alt. Az. Time Alt. Az. Time Alt. Az.
12 Jan ? 19:14:13 10° WNW 21:35:33 38° W 07:54:48 10° ENE visible
14 Jan ? 10:04:07 10° W 19:53:29 38° ESE 22:41:40 10° ESE visible
15 Jan ? 13:59:20 10° WNW 20:10:27 79° SSE 02:52:54 10° E visible
16 Jan ? 17:55:52 10° WNW 20:33:56 51° W 06:43:01 10° ENE daylight
18 Jan ? 08:48:01 10° WSW 18:56:03 26° ESE 21:12:33 10° ESE visible
19 Jan ? 12:48:57 10° WNW 20:42:52 71° SE 01:41:12 10° E visible
20 Jan ? 16:41:28 10° WNW 19:33:05 64° W 05:32:26 10° ENE visible
21 Jan ? 22:11:11 10° W 22:43:40 11° W 23:21:11 10° W visible
